timestamp,gas_concentrations,,corrected_fluxes_and_quality_flags,,,,,,,,,,storage_terms,,,turbulence,,,footprint,,
ISOdate,CO2_1_1_1,H2O_1_1_1,Tau_1_1_1,QcTau_1_1_1,H_1_1_1,QcH_1_1_1,LE_1_1_1, QcLE_1_1_1,Fc_1_1_1, QcFc_1_1_1,E_1_1_1, QcE_1_1_1,Sa_1_1_1,Sw_1_1_1,Sc_1_1_1,ustar_1_1_1,MO_length_1_1_1,ZL_1_1_1,Fetchmax_1_1_1,Fetch70_1_1_1,Fetch90_1_1_1
yyyymmddHHMM,[µmol+1mol_a-1],[mmol+1mol_a-1],[kg+1m-1s-2],[#],[W+1m-2],[#],[W+1m-2],[#],[µmol+1s-1m-2],[#],[mmol+1s-1m-2],[#],[W+1m-2],[W+1m-2],[µmol+1s-1m-2],[m+1s-1],[m],[#],[m],[m],[m]
201301180030,-9999.,1.1684574111646933,9.06610753409461817E-002,0,-25.976611060655294,0,-0.19330692842735572,0,-9999.,-9999.,-4.21940939451966902E-003,0,-9999.,-9999.,-9999.,0.26239896444369920,59.053581925215937,0.36576951466472823,114.55479252448153,209.44269611193781,313.78332423185600
201301180100,-9999.,1.1646635054453163,8.71597234261806547E-002,0,-26.412885939453222,0,-0.20091327545907670,0,-9999.,-9999.,-4.38545338176670688E-003,0,0.10300111871094840,-0.15372664191695970,-9999.,0.25726654128719584,54.741686629194334,0.39458046198526314,97.643576443083049,178.52359955940634,267.46088339909562
201301180130,-9999.,1.1675677524477777,6.16973761224329023E-002,0,-20.942058399800487,0,-0.16030687357379772,0,-9999.,-9999.,-3.49917639650743984E-003,0,0.49774420745706910,0.11765371213535877,-9999.,0.21647129699218465,41.127314543178997,0.52519840499973469,113.50800563420751,207.52883582096163,310.91601276496721
201301180200,-9999.,1.1592813898501961,4.27204939262130698E-002,0,-0.13450008007338249,2,4.37557311823855502E-003,2,-9999.,-9999.,9.55104885657092364E-005,2,0.15444085374619299,-0.33561827280086248,-9999.,0.18014757451696095,3690.2466541597378,5.85326728110489424E-003,308.18136711256273,1786.0000000000000,6197.0000000000000
201301180230,-9999.,1.1196062016838613,6.61589493749059759E-002,0,-21.940863084589157,0,-0.17233317174828275,0,-9999.,-9999.,-3.75897871512809959E-003,0,-20.105143768660621,-1.6131104449364326,-9999.,0.22383457605882637,43.394283301462210,0.49776141824819975,95.305676991952652,174.24917372795343,261.05701460121224
201301180300,-9999.,1.1291073398499625,0.11853090470200368,0,-11.385555524526893,0,-7.68689085822919504E-002,2,-9999.,-9999.,-1.67670095242282414E-003,2,0.24962113677997466,0.38633602192560196,-9999.,0.29958858885076206,200.52717574920976,0.10771607349127651,104.37300436631453,190.82714004402945,285.89382904367864
201301180330,-9999.,1.1635386126381360,0.15129654554990618,1,-9.6006095473098974,1,-5.04177597921766224E-002,1,-9999.,-9999.,-1.10005913998330600E-003,1,8.1275278859638256,1.3969998162012507,-9999.,0.33879434670065589,343.76628646359961,6.28333866657024842E-002,106.59194438889401,194.88407009992747,291.97184953686138
201301180400,-9999.,1.2034916267667957,0.12948853547095956,0,-7.1710501591126299,1,-3.82881972867892134E-002,1,-9999.,-9999.,-8.35758957819368988E-004,1,11.663757519207209,1.6162887426951378,-9999.,0.31382367978301784,365.59835085881582,5.90812293033054076E-002,115.54396386788984,211.25121680770732,316.49281778973767
201301180430,-9999.,1.2458333396413659,9.13564597768136699E-002,0,-4.5928657752631175,1,-1.29625974543188457E-002,1,-9999.,-9999.,-2.83074429743786530E-004,1,12.192155483094313,1.7081359472900228,-9999.,0.26390924978227553,339.35932037333163,6.36493495338147364E-002,112.08472977735789,204.92663362408797,307.01743969072618
201301180500,-9999.,1.2828466157522185,0.18290515230174939,0,-6.2863166662053684,1,-2.29832001944996270E-002,0,-9999.,-9999.,-5.02063595837560139E-004,0,8.8201624535614531,1.4892375698374842,-9999.,0.37385651663914582,704.36722625786479,3.06658220240536364E-002,123.64138197567848,226.05587964779266,338.67290048696867
201301180530,-9999.,1.3027819967980141,0.27476212352895169,0,6.7233094731378111,0,0.10769884788834502,0,-9999.,-9999.,2.35312752595811690E-003,0,5.4355004280290631,0.80095101491456089,-9999.,0.45850226889429879,-1214.4961360846069,-1.77851533308585642E-002,121.18720261577383,221.56885705752563,331.95052300418013
201301180600,-9999.,1.3361691918293681,0.32409261915967186,0,8.5441522453209622,1,0.15324530069937209,1,-9999.,-9999.,3.34880449971174891E-003,1,4.2959706694749595,1.3391884371905778,-9999.,0.49834039025666044,-1226.3232630554999,-1.76136265622015252E-002,112.02796654109994,204.82285232450275,306.86195639251866
201301180630,-9999.,1.3982514573264462,0.51885715816044187,0,3.6970928933147831,1,9.71818898910146722E-002,0,-9999.,-9999.,2.12400958683281460E-003,0,4.3083506642445100,2.4870787092779216,-9999.,0.63089366202946007,-5748.7834489299703,-3.75731669002429391E-003,117.21422812660640,214.30499257610427,321.06793036159911
201301180700,-9999.,1.4842745050464548,0.46880212147352857,0,0.81438481441144384,2,0.11100773842287044,1,-9999.,-9999.,2.42745423866999382E-003,1,14.212580031778558,3.4351059291157457,-9999.,0.60050843112866181,-22497.866581773542,-9.60091034476089457E-004,120.05156911281928,219.49255682239567,328.83984690051562
201301180730,-9999.,1.5401344170193858,0.46006222850665013,0,-10.530800303657038,1,-5.86209498261889284E-002,1,-9999.,-9999.,-1.28235233869470125E-003,1,9.7967850355031612,2.2239479729019909,-9999.,0.59567491275878270,1696.8092770588412,1.27297748144330584E-002,117.11468626402844,214.12299830406297,320.79526977838282
201301180800,-9999.,1.5742948130184027,0.67749846690998106,0,-0.92447601435352889,2,0.12154814602165925,0,-9999.,-9999.,2.65954045771719981E-003,0,6.4695036395556489,1.3568010574777749,-9999.,0.72363849628366972,34624.540627247843,6.23834991272110705E-004,114.28692211956739,208.95294357887099,313.04958569272566
201301180830,-9999.,1.6145444775430502,0.90661574038470172,0,4.2514571993461328,2,0.18919935908503888,0,-9999.,-9999.,4.14109038838562753E-003,0,8.5093356086250260,1.5947192742818574,-9999.,0.83801095167203110,-11686.030407858669,-1.84836075605916152E-003,119.02667830221969,217.61872954846078,326.03251218812557
201301180900,-9999.,1.6601146953958701,0.92934437473513509,0,-2.8745306395036345,0,0.10982773377772193,0,-9999.,-9999.,2.40462085046949181E-003,0,8.6573035327288093,1.8006910817435000,-9999.,0.84945878944696018,17988.731466263453,1.20075170617279028E-003,120.47181119680749,220.26089338126451,329.99095507495338
201301180930,-9999.,1.7242257049628149,0.76721015155289241,0,11.464644947400457,2,0.33139741981662174,1,-9999.,-9999.,7.25816457804177688E-003,1,8.8593050400038624,2.5278028224598663,-9999.,0.77253582617862915,-3391.4760647996791,-6.36890828279391887E-003,125.49900390219901,229.45220498759861,343.76121473750538
201301181000,-9999.,1.7857002144941607,0.56976876657877451,0,14.714705974321767,0,0.29494706773536739,0,-9999.,-9999.,6.46188309868289245E-003,0,8.4821459256259963,2.4182795365570362,-9999.,0.66641803429093927,-1695.4156384659057,-1.27402387414243326E-002,119.82879620559798,219.08525689822051,328.22963739433760
201301181030,-9999.,1.8523152110660717,0.48334666134686410,0,3.9693393130519850,2,0.20586495464234822,0,-9999.,-9999.,4.51189998620678961E-003,0,9.9866690427180274,2.6147948803928589,-9999.,0.61436172139752621,-4923.3874843872818,-4.38722324182211527E-003,117.10409862854469,214.10364072964558,320.76626860449363
201301181100,-9999.,1.9377026239081230,0.40665419380192691,0,15.638640604676395,0,0.31132809627232844,0,-9999.,-9999.,6.82589522699235222E-003,0,10.097275753611166,3.3427240563760194,-9999.,0.56417231908244148,-967.21882024395302,-2.23320716552558654E-002,114.69595679418542,209.70078941899121,314.16999503658013
201301181130,-9999.,2.0313354264585586,0.58328009751069787,0,4.0318378472550913,2,0.21635528102438051,0,-9999.,-9999.,4.74583149550402046E-003,0,12.466450974037430,3.6524480672026916,-9999.,0.67673554077980369,-6469.6987536039269,-3.33864076561026651E-003,130.71391272851656,238.98672153197165,358.04565793736771
201301181200,-9999.,2.1207689771123284,0.61199739953411547,0,17.275289428474732,0,0.40627369974581701,0,-9999.,-9999.,8.91587300586252005E-003,0,12.230864710748365,3.4766680858706271,-9999.,0.69423899336392325,-1628.9262198790677,-1.32602690879416226E-002,123.76138975535176,226.27529214355366,339.00162038781014
201301181230,-9999.,2.2138965013044913,0.34444700599352623,0,20.690288489801404,0,0.39425002164185202,0,-9999.,-9999.,8.65617758422581630E-003,0,12.736980701178274,3.6093513901479994,-9999.,0.52149994418225076,-576.27075178119208,-3.74823812127141331E-002,120.92415933335079,221.08793004390427,331.23000670139930
201301181300,-9999.,2.3581790329345034,0.26202483191443871,0,6.8074367999622423,2,0.11298569469538537,2,-9999.,-9999.,2.48226944524989647E-003,2,16.426801642121653,5.5679114572365007,-9999.,0.45569776430929126,-1167.7057734418077,-1.84978103999041618E-002,117.99746172829390,215.73699339953413,323.21332853981210
201301181330,-9999.,2.5211764795271887,0.40522469554533547,0,27.897894299024632,0,0.51522678494116159,1,-9999.,-9999.,1.13277170664437144E-002,1,19.221104851012942,6.2626112843069395,-9999.,0.56775337781838719,-550.80542776707807,-3.92152998338536826E-002,126.42024526687007,231.13652801708088,346.28463755951083
201301181400,-9999.,2.6640724645182043,0.25218631374597544,0,8.1519791628373106,1,0.15286355526134501,1,-9999.,-9999.,3.36264032241825840E-003,1,13.989435984440568,5.4743655944604068,-9999.,0.44843393270497311,-928.69148519006160,-2.32585313254804402E-002,116.87273004713906,213.68062517161178,320.13251421503190
201301181430,-9999.,2.7625043629098003,0.33570984212750010,0,13.186633531194625,0,0.26602060186033577,0,-9999.,-9999.,5.85382305126907598E-003,0,8.8753866727619570,3.7622476725984018,-9999.,0.51791087983942230,-884.08534561038300,-2.44320303545887928E-002,137.17625666316619,250.80194730339795,375.74701915899078
201301181500,-9999.,2.8808818364495656,0.33545445708533228,0,18.477596321905548,1,0.40343638408099153,1,-9999.,-9999.,8.88132527781503034E-003,1,10.681611616720748,4.5130362140970206,-9999.,0.51828208642604934,-632.08042114167040,-3.41728667389916141E-002,125.55429846341673,229.55330108080040,343.91267510724180
201301181530,-9999.,2.9842338473857724,0.27645325579888191,0,6.5110666443370455,0,0.13895808793722167,0,-9999.,-9999.,3.06008549146184533E-003,0,8.7833840795611877,3.9315810391768644,-9999.,0.47094585889120477,-1345.3522378395619,-1.60552748882228993E-002,115.62180003902112,211.39352615310884,316.70602312130711
201301181600,-9999.,3.0740620156859713,0.21866563737424058,0,-2.1182344498281500,2,-3.02427690960279209E-002,2,-9999.,-9999.,-6.66179684117925212E-004,2,7.1642732276668033,3.4119201802578076,-9999.,0.41911067548365016,2914.4182055698366,7.41142776239853314E-003,121.58865085096215,222.30283246679761,333.05015191510051
201301181630,-9999.,3.1448875975791579,0.15831038434587469,1,-4.6255936447366732,0,-0.10298834519242675,1,-9999.,-9999.,-2.26906169869839705E-003,1,5.2686557472147193,2.6880287711374420,-9999.,0.35671884920326458,823.05271571566368,2.62437625045903559E-002,129.46499980143761,236.70331038092303,354.62469194110685
201301181700,-9999.,3.2064123524142363,0.11169884140764029,0,-6.5089809873716717,0,-0.13827374379728177,1,-9999.,-9999.,-3.04689587547213271E-003,1,3.5532094282714772,2.3330321837552499,-9999.,0.29974874769842164,346.99870251084315,6.22480713723274973E-002,104.58591244494953,191.21640391532316,286.47701725604105
201301181730,-9999.,3.2648418249509090,7.10330243097914149E-002,1,-4.6510634538571054,0,-8.65991626318521335E-002,2,-9999.,-9999.,-1.90861158582555511E-003,2,5.1163293836869093,2.2140855283890266,-9999.,0.23909980327892724,246.51638427832788,8.76209508882486582E-002,114.70993579844904,209.72634749715985,314.20828569496837
201301181800,-9999.,3.2909994062457151,9.41421213638683196E-002,0,-5.4982896063474289,0,-0.10563981760458063,2,-9999.,-9999.,-2.32832663185736756E-003,2,0.73746043980131892,0.99063548319458739,-9999.,0.27533414470156503,318.33431422968061,6.78531940619365309E-002,119.44129326219559,218.37677792995592,327.16820679810616
201301181830,-9999.,3.3209843745371046,9.05029113700765303E-002,0,-4.6215286730917171,0,-7.72186814177845821E-002,0,-9999.,-9999.,-1.70195329476508775E-003,0,0.53459917596821271,1.1349996992232005,-9999.,0.27002837161195953,357.14749846195906,6.04792140306722251E-002,119.85077342335640,219.12543826155701,328.28983639861872
201301181900,-9999.,3.3402042043696700,8.91031962223115398E-002,0,-5.7150197950523065,1,-0.11570890932328044,2,-9999.,-9999.,-2.55027580643026486E-003,2,-0.29156453232339175,0.72743326092218219,-9999.,0.26794957019691695,282.16013151464648,7.65522750646959460E-002,112.39528219130322,205.49442248239245,307.86809086514273
201301181930,-9999.,3.3597986811966942,0.11610700270559533,0,-4.3327355280405220,0,-8.02984175945810896E-002,1,-9999.,-9999.,-1.77007052283623752E-003,1,3.7562767804661390,0.74117282931972317,-9999.,0.30593877583348500,554.03743127025530,3.89865355315021714E-002,120.01354523049193,219.42303703840602,328.73569359593586
201301182000,-9999.,3.3848028610419503,4.25774808555150902E-002,0,-1.9808601420599550,0,-3.22020186911823603E-002,1,-9999.,-9999.,-7.09934811480697914E-004,1,3.0748534565844641,0.94524766666105509,-9999.,0.18530957823912483,269.30469829891649,8.02065472174753602E-002,81.324825659455257,587.00000000000000,2397.0000000000000
201301182030,-9999.,3.4171056344170192,3.64662988205687599E-002,1,-1.0914524501877911,1,-4.90163354363556698E-003,1,-9999.,-9999.,-1.08067479879593942E-004,1,1.1164132669048270,1.2208340890801457,-9999.,0.17151616674724895,387.52618365139585,5.57381692160201433E-002,48.236458601592275,323.00000000000000,1245.0000000000000
201301182100,-9999.,3.4586543686851536,8.86901697747508565E-003,1,-0.96545334863228638,1,-2.25896163251082215E-002,2,-9999.,-9999.,-4.98068185968051995E-004,2,1.5281277287922348,1.5692700320485102,-9999.,8.46108335013605189E-002,52.581688913692687,0.41078939163506389,125.01234800350684,1130.0000000000000,5493.0000000000000
201301182130,-9999.,3.4826135630114639,2.80674251155739324E-002,1,-0.13352616873984774,2,8.74871294872139708E-003,2,-9999.,-9999.,1.92902693518538933E-004,2,0.84087045823992168,0.90488629678877786,-9999.,0.15051973278125780,2140.6282409896162,1.00904956715016907E-002,67.912505301655528,398.00000000000000,1392.0000000000000
201301182200,-9999.,3.5065342822258345,4.88649821366555215E-002,1,-2.7807244089414138,0,-6.58393661196341740E-002,0,-9999.,-9999.,-1.45172970586616122E-003,0,0.35583268690655168,0.90361975866597755,-9999.,0.19858440967336929,236.09780904587873,9.14875071788686933E-002,133.54767794345713,1012.0000000000000,4293.0000000000000
201301182230,-9999.,3.4550258432539125,8.63994753688464567E-002,0,13.899901500013801,1,0.38608812919570823,1,-9999.,-9999.,8.51085717766355936E-003,1,-6.7279505784876870,-1.9484822410321347,-9999.,0.26390701904464453,-110.86134713116799,-0.19483797156499907,101.97346576155428,186.44001818094142,279.32112105450011
201301182300,-9999.,3.3436213364668377,6.80781611044809637E-002,0,1.0457098784273664,1,3.27070623552519202E-002,0,-9999.,-9999.,7.20755624568110236E-004,0,-8.3482432163588882,-4.2203297131368291,-9999.,0.23412486224328921,-1028.7433822637643,-2.09964898655959249E-002,101.89221324125384,186.29146265967000,279.09855781327531
201301182330,-9999.,3.2829741053493464,5.20672627517861850E-002,0,-0.29903364609012489,1,1.56268909224592557E-002,0,-9999.,-9999.,3.44316886132795561E-004,0,-3.6165469737123597,-2.2989076851985319,-9999.,0.20470004000108052,2404.2417116188467,8.98412164451472053E-003,121.27178228704099,221.72349567190460,332.18219982736474
201301190000,-9999.,3.2487999846938611,8.33036286065170495E-002,0,-1.8896446194050831,1,3.50095874434964982E-003,0,-9999.,-9999.,7.71330887943275713E-005,0,-1.9063164091270359,-1.2960162870324150,-9999.,0.25886863375752184,769.53806434854516,2.80687869784395257E-002,125.88966673389726,230.16646123946273,344.83130075732782
